Regional Weather Roundup
Issued by NWS

Current Version |  Previous Version |  Text Only |  Print | Product List |  Glossary On
Versions: 1 2 3 4 5 6 7 8 9 10 11 12 13 14 15 16 17 18 19 20 21 22 23 24 25 26 27 28
562
ASUS44 KLUB 280410
RWRLUB
WEST TEXAS WEATHER ROUNDUP
NATIONAL WEATHER SERVICE LUBBOCK TX
1100 PM CDT MON MAY 27 2024

NOTE: "FAIR" INDICATES FEW OR NO CLOUDS BELOW 12,000 FEET WITH NO
SIGNIFICANT WEATHER AND/OR OBSTRUCTIONS TO VISIBILITY.

TXZ004-006>008-010-012-014-016-OKZ002-280500-
TEXAS PANHANDLE/OKLAHOMA PANHANDLE

CITY           SKY/WX    TMP DP  RH WIND       PRES   REMARKS
AMARILLO       PTCLDY    76  43  30 SE14      30.07R
BORGER         CLEAR     78  43  28 SE12      30.07R
CANADIAN       CLEAR     73  52  48 E9        30.05R
DALHART        PTCLDY    74  40  29 E14       30.10R
DUMAS          PTCLDY    72  40  31 E12       30.10R
GUYMON         CLEAR     72  43  35 SE7       30.07R
HEREFORD       PTCLDY    72  38  29 SE10      30.08R
PAMPA          CLEAR     73  45  36 SE12      30.08F
PERRYTON       CLEAR    N/A N/A N/A E9        30.07R
$$

TXZ026-029-035-045-048-280500-
SOUTHERN PANHANDLE/SOUTH PLAINS/ROLLING PLAINS

CITY           SKY/WX    TMP DP  RH WIND       PRES   REMARKS
CHILDRESS      CLEAR     81  50  33 SE13G26   30.00R
SEMINOLE       PTCLDY    80  23  12 CALM      30.03R
LUBBOCK        PTCLDY    80  53  39 E14       30.03R
PLAINVIEW      CLEAR     74  50  42 SE10      30.05R
SNYDER         CLEAR     84  61  46 NE8       29.96R
$$

TXZ052-054-060>062-072-078-127-140-154-169-280500-
PERMIAN BASIN/CONCHO VALLEY/BIG COUNTRY/EDWARDS PLATEAU

CITY           SKY/WX    TMP DP  RH WIND       PRES   REMARKS
ABILENE        PTCLDY    83  67  58 SE12      29.95R
BIG SPRING     CLEAR     76  24  14 NE3       29.94R
BRADY          PTCLDY    79  66  65 SE7       29.96R
BROWNWOOD      PTCLDY    81  73  78 SE12      29.96R
JUNCTION       MOCLDY   N/A N/A N/A E6        29.97R
MIDLAND        CLEAR     82  23  11 E12       29.96R
ODESSA         PTCLDY    85  23  10 E7        29.97R
SAN ANGELO     PTCLDY    87  58  37 S10       29.91R
SONORA         PTCLDY    86  59  39 CALM      30.02R
SWEETWATER       N/A     85  60  42 SE14G21   29.98R
$$

TXZ055-058-074-075-080-082-280500-
FAR WEST/SOUTHWEST MOUNTAINS/TRANS PECOS

CITY           SKY/WX    TMP DP  RH WIND       PRES   REMARKS
ALPINE         MOCLDY    81  18   9 CALM      30.13R
DRYDEN           N/A     83  52  34 N7        29.93R
EL PASO        CLEAR     91  -1   3 W13       30.02R
FORT STOCKTON  MOCLDY    88  52  29 SE10      29.97R
MARFA          MOCLDY    75  16  10 NW5       30.13R
PECOS          MOCLDY    85  18   8 NE7       29.93R
PRESIDIO       PTCLDY    89  36  15 N5        29.94R
$$

TXZ014-016-019-021>030-083-280500
TEXAS TECH WEST TEXAS MESONET/TEXAS PANHANDLE/NORTHERN SOUTH PLAINS

CITY           SKY/WX    TMP DP  RH WIND       PRES   REMARKS
ABERNATHY 5ENE   N/A     78  57  47 E18       30.05R
AMARILLO 9NNE    N/A     76  45  33 SE22      30.07R
AMARILLO 7SSE    N/A     73  45  36 E15       30.10R
AMHERST 1NE      N/A     76  46  34 E13       30.06R
BOOTLEG 11WNW    N/A     67  25  20 SE12      30.12S
CANADIAN 6E      N/A     72  53  50 E13       30.05R
CAPROCK CYN SP   N/A     77  53  42 E6        30.05R
CHILDRESS 2NNE   N/A     80  50  34 E16       30.02R
CLARENDON 2WSW   N/A     75  49  38 E10       30.07R
CLAUDE 12SW      N/A     74  46  36 E18       30.08S
DIMMITT 2NE      N/A     74  38  26 E13       30.09R
FLOYDADA 2NNE    N/A     78  58  50 E20       30.06R
FRIONA 2NE       N/A     71  28  20 E7        30.07S
GOODLETT 3W      N/A     82  52  34 E15       29.99R
HART 3N          N/A     76  43  30 E15       30.08R
HEREFORD 2NW     N/A     77  39  25 E10       30.08R
MCLEAN 1E        N/A     74  47  38 E10       30.07R
MEMPHIS 1NE      N/A     79  51  38 E6        30.04R
MULESHOE 2SSW    N/A     70  29  21 E10       30.07R
OLTON 6S         N/A     71  47  41 E9        30.05R
PALO DURO SP     N/A     76  44  31 E10       30.09R
PAMPA 2E         N/A     70  44  39 SE10      30.09S
PLAINVIEW 1S     N/A     75  51  41 E7        30.06R
SILVERTON 7ESE   N/A     75  52  43 E15       30.07R
TULIA 2ENE       N/A     71  46  40 E8        30.08R
TURKEY 2WSW      N/A     80  53  39 E13       30.03R
UMBARGER 3NNE    N/A     74  43  32 E12       30.10R
$$

TXZ033>036-039>041-045>048-280500
TEXAS TECH WEST TEXAS MESONET/SOUTH PLAINS

CITY           SKY/WX    TMP DP  RH WIND       PRES   REMARKS
AIKEN 3WSW       N/A     75  53  47 E12       30.07R
ANDREWS 2NE      N/A     79  22  12 E6        29.98S
ANTON 6SSW       N/A     79  49  35 E14       30.04R
BROWNFIELD 2S    N/A     78  50  36 E10       30.02R
DENVR CTY 7WNW   N/A     77  20  12 E8        30.02R
GAIL 2ESE        N/A     85  59  41 NE10      29.96S
LAMESA 2SE       N/A     82  37  19 NE15      29.98S
LUBBOCK 3WNW     N/A     80  53  39 E8        30.04R
MORTON 1ENE      N/A     76  36  24 E14       30.05R
ODONNELL 1N      N/A     80  53  39 E13       30.01R
PLAINS 3N        N/A     77  23  13 E7        30.03R
RALLS 1SE        N/A     79  58  49 E14       30.05R
REESE CENTER     N/A     80  54  39 E16       30.04R
SEAGRAVES 1SW    N/A     81  24  12 CALM      30.00S
SEMINOLE 2NNE    N/A     77  23  13 E8        30.00R
SLATON 2NE       N/A     80  58  46 E13       30.04R
SNYDER 3E        N/A     82  63  52 NE8       29.95R
SUNDOWN 8SW      N/A     77  34  21 E15       30.04R
TAHOKA 3NNE      N/A     80  58  47 E12       30.02R
WOLFFORTH 6SSW   N/A     80  54  40 E17       30.04R
$$

TXZ031-032-036>038-042>044-280500-
TEXAS TECH WEST TEXAS MESONET/ROLLING PLAINS

CITY           SKY/WX    TMP DP  RH WIND       PRES   REMARKS
ASPERMONT 3NE    N/A     84  68  58 E8        29.96R
FLUVANNA 3WNW    N/A     83  62  49 NE14      29.98S
GRAHAM 5SSW      N/A     82  58  43 NE16      30.00R
GUTHRIE 10WSW    N/A     81  61  50 E14       29.99R
HASKELL 1NW      N/A     85  70  60 E8        29.95R
JAYTON 1SSE      N/A     83  64  52 NE8       29.97R
KNOX CITY 3NW    N/A     83  61  47 E17       29.97R
LK A HENRY 1NW   N/A     85  63  47 NE13      29.97R
NORTHFIELD 1S    N/A     82  52  34 E14       30.00R
ODELL 4ENE       N/A     81  56  43 E14       30.01R
PADUCAH 10SW     N/A     81  54  39 E17       30.03R
POST 1NE         N/A     81  60  49 NE8       29.99R
RRING SPRGS 3N   N/A     80  58  47 E13       30.04R
SEYMOUR 3NW      N/A     82  59  46 E12       29.97R
SPUR 1W          N/A     82  62  50 E9        29.98R
WEINERT 2NNE     N/A     83  63  52 E14       29.97R
WHITE RVR 6NE    N/A     80  60  50 NE9       30.02R
$$

TXZ052-054-060>062-072-078-127-140-154-169-280500-
TEXAS TECH WEST TEXAS MESONET/PERMIAN BASIN/
CONCHO VALLEY/BIG COUNTRY/EDWARDS PLATEAU

CITY           SKY/WX    TMP DP  RH WIND       PRES   REMARKS
COYANOSA 2N      N/A     89  38  16 SE9       29.94R
JUNCTION 1SSW    N/A     78  65  62 CALM      29.98R
MERTZON 3NNE     N/A     85  57  38 S8        29.96R
SAN ANGELO 7NW   N/A     85  61  44 SE9       29.94R
STRLNG CT 4WSW   N/A     72  44  35 NE7       29.96R
ST LAWRNCE 5SW   N/A     82  22  10 E6        29.97R
SWEETWATR 11SW   N/A     83  62  49 SE15      29.98R
WALL 1E          N/A     85  63  46 SE18      29.95R
$$

TXZ055-058-074-075-080-082-280500-
TEXAS TECH WEST TEXAS MESONET/FAR WEST/SOUTHWEST MOUNTAINS/TRANS PECOS

CITY           SKY/WX    TMP DP  RH WIND       PRES   REMARKS
PRSMN GAP BBNP   N/A     92  51  24 NE9       29.96R
GUADLPE MTN NP   N/A     73  21  14 NW7       30.17R
$$